Location: Unspecified
(0.0000°N, 0.0000°E)
Time: 02:09:13
(UTC+01:00)

DELTA 2 R/B (1) - Visible Passes

Search period start: 01 November 2014 00:00
Search period end: 11 November 2014 00:00
Orbit: 791 x 804 km, 39.6° (Epoch: 31 October)

Date Brightness Start Highest point End Pass type
(mag) Time Alt. Az. Time Alt. Az. Time Alt. Az.
01 Nov 6.0 05:19:08 10° NNE 05:21:37 13° NE 05:24:06 10° ENE visible
01 Nov 4.8 19:40:55 10° WSW 19:46:01 36° NW 19:51:01 10° NNE visible
02 Nov 6.0 04:49:14 10° NNE 04:50:58 11° NE 04:52:42 10° ENE visible
02 Nov 4.7 19:10:10 10° WSW 19:15:24 41° NW 19:20:37 10° NNE visible
03 Nov 3.8 06:01:23 10° NW 06:06:53 71° NE 06:12:24 10° SE visible
04 Nov 3.9 05:32:27 20° NW 05:36:16 63° NE 05:41:44 10° ESE visible
05 Nov 4.0 05:03:58 39° N 05:05:40 55° NE 05:11:04 10° ESE visible
06 Nov 4.2 04:35:28 47° ENE 04:35:28 47° ENE 04:40:22 10° ESE visible
06 Nov 4.9 06:17:02 10° W 06:21:25 24° SW 06:25:48 10° SSE visible
07 Nov 5.4 04:06:55 27° E 04:06:55 27° E 04:09:40 10° ESE visible
07 Nov 4.8 05:47:44 17° W 05:50:47 27° SW 05:55:24 10° SSE visible
08 Nov 6.3 03:38:18 13° ESE 03:38:18 13° ESE 03:38:55 10° ESE visible
08 Nov 4.5 05:19:06 28° WSW 05:20:10 30° SW 05:24:58 10° SSE visible
09 Nov 4.6 04:50:25 32° SSW 04:50:25 32° SSW 04:54:31 10° SSE visible
10 Nov 5.4 04:21:40 23° S 04:21:40 23° S 04:24:03 10° SSE visible
